Home   Weather   Christchurch   Past weeks

Flag for New Zealand Past Weather in Christchurch, New Zealand — Yesterday and Last 2 Weeks

Now
68 °F

Mild.


Feels Like: 68 °F
Forecast: 50 / 67 °F
Wind: 12 mph from Northeast

Location: Christchurch Airport

Current Time: Jan 24, 2017 at 12:20:23 pm

Latest Report: Jan 24, 2017 at 11:30 am


Visibility: N/A

Pressure: 29.89 "Hg

Humidity: 49%

Dew Point: 48 °F

Location of ChristchurchLocation

Past Weather in Christchurch — Graph

°F

Christchurch Temperature Yesterday

Maximum temperature yesterday: 68 °F (at 12:30 pm)
Minimum temperature yesterday: 57 °F (at 9:00 pm)
Average temperature yesterday: 62 °F

High & Low Weather Summary for the Past Weeks

 TemperatureHumidityPressure
High86 °F (Jan 11, 5:30 pm)100% (Jan 10, 2:00 am)29.92 "Hg (Jan 10, 2:00 am)
Low45 °F (Jan 20, 5:00 am)19% (Jan 12, 1:00 pm)28.80 "Hg (Jan 19, 4:30 am)
Average63 °F63%29.48 "Hg
* Reported Jan 9 11:00 am — Jan 24 11:00 am, Christchurch, Weather by CustomWeather, © 2017

Note: Actual official high and low records may vary slightly from our data, if they occured in-between our weather recording intervals... More about our weather records

Advertising

Christchurch Weather History for the Previous 24 Hours

Scroll right to see more
 ConditionsComfort  
Time TempWeatherWind HumidityBarometerVisibility
11:00 am
Tue, Jan 24
66 °FMild.10 mph60%29.89 "HgN/A
10:30 am64 °FMild.9 mph68%29.92 "HgN/A
10:00 am64 °FMild.9 mph64%29.92 "HgN/A
9:30 am63 °FMild.10 mph77%29.89 "HgN/A
9:00 am61 °FCool.10 mph83%29.89 "HgN/A
8:30 am55 °FCool.7 mph88%29.89 "HgN/A
8:00 am54 °FCool.3 mph94%29.89 "HgN/A
7:30 am50 °FCool.5 mph100%29.86 "HgN/A
7:00 am50 °FCool.6 mph94%29.86 "HgN/A
6:30 am52 °FPassing clouds.6 mph94%29.86 "HgN/A
6:00 am55 °FCool.9 mph94%29.83 "HgN/A
5:30 am55 °FCool.8 mph94%29.83 "HgN/A
5:00 am55 °FCool.10 mph94%29.83 "HgN/A
4:30 am52 °FCool.3 mph100%29.80 "HgN/A
4:00 am54 °FCool.1 mph94%29.80 "HgN/A
3:30 am54 °FCool.1 mph88%29.80 "HgN/A
3:00 am54 °FCool.5 mph88%29.80 "HgN/A
2:30 am55 °FCool.7 mph88%29.80 "HgN/A
2:00 am55 °FCool.8 mph88%29.80 "HgN/A
1:30 am55 °FCool.6 mph88%29.80 "HgN/A
1:00 am55 °FCool.9 mph82%29.77 "HgN/A
12:30 am55 °FCool.6 mph82%29.77 "HgN/A
12:00 am57 °FCool.9 mph77%29.74 "HgN/A
11:30 pm
Mon, Jan 23
57 °FCool.9 mph77%29.74 "HgN/A
11:00 pm57 °FCool.12 mph77%29.74 "HgN/A
10:30 pm57 °FCool.13 mph77%29.74 "HgN/A
10:00 pm57 °FCool.13 mph77%29.74 "HgN/A
9:30 pm57 °FCool.12 mph77%29.71 "HgN/A
9:00 pm57 °FCool.14 mph77%29.68 "HgN/A
8:30 pm59 °FCool.16 mph72%29.68 "HgN/A
8:00 pm63 °FScattered clouds.15 mph64%29.65 "HgN/A
7:30 pm63 °FPassing clouds.14 mph64%29.65 "HgN/A
7:00 pm64 °FPartly sunny.3 mph46%29.62 "HgN/A
6:30 pm64 °FOvercast.7 mph49%29.62 "HgN/A
6:00 pm64 °FPartly sunny.12 mph49%29.62 "HgN/A
5:30 pm66 °FPartly sunny.10 mph46%29.59 "HgN/A
5:00 pm68 °FMild.12 mph43%29.59 "HgN/A
4:30 pm68 °FMild.13 mph43%29.59 "HgN/A
4:00 pm68 °FMild.14 mph43%29.56 "HgN/A
3:30 pm68 °FMild.14 mph40%29.56 "HgN/A
3:00 pm68 °FMild.17 mph38%29.56 "HgN/A
2:30 pm68 °FMild.22 mph40%29.53 "HgN/A
2:00 pm68 °FMild.20 mph43%29.53 "HgN/A
1:30 pm68 °FMild.23 mph43%29.53 "HgN/A
1:00 pm68 °FMild.22 mph43%29.50 "HgN/A
12:30 pm68 °FMild.22 mph46%29.50 "HgN/A
12:00 pm66 °FMild.20 mph46%29.50 "HgN/A
Weather by CustomWeather, © 2017

See weather overviewHow to use our weather pages